Time,TemperatureF,DewpointF,PressureIn,WindDirection,WindDirectionDegrees,WindSpeedMPH,WindSpeedGustMPH,Humidity,HourlyPrecipIn,Conditions,Clouds,dailyrainin,SoftwareType,DateUTC
2013-01-22 00:02:00,50.6,44.0,30.19,SSE,164,0.0,0.0,78,0.00,CLR,,0.00,WeatherDisplay:10.37,2013-01-22 06:02:00,
2013-01-22 00:07:00,50.3,43.7,30.19,SSE,164,0.0,0.0,78,0.00,CLR,,0.00,WeatherDisplay:10.37,2013-01-22 06:07:00,
2013-01-22 00:12:00,50.0,43.4,30.19,SSE,164,0.0,0.0,78,0.00,CLR,,0.00,WeatherDisplay:10.37,2013-01-22 06:12:00,
2013-01-22 00:17:00,49.7,43.5,30.19,SSE,164,0.0,0.0,79,0.00,CLR,,0.00,WeatherDisplay:10.37,2013-01-22 06:17:00,
2013-01-22 00:22:00,49.6,43.4,30.19,SSE,164,0.0,0.0,79,0.00,CLR,,0.00,WeatherDisplay:10.37,2013-01-22 06:22:00,
2013-01-22 00:27:00,49.3,43.4,30.19,SSE,164,0.0,0.0,80,0.00,CLR,,0.00,WeatherDisplay:10.37,2013-01-22 06:27:00,
2013-01-22 00:32:00,49.2,43.3,30.19,SSE,164,0.0,0.0,80,0.00,CLR,,0.00,WeatherDisplay:10.37,2013-01-22 06:32:00,
2013-01-22 00:37:00,49.0,43.1,30.19,SSE,164,0.0,0.0,80,0.00,CLR,,0.00,WeatherDisplay:10.37,2013-01-22 06:37:00,
2013-01-22 00:42:00,48.8,42.9,30.19,SSE,164,0.0,0.0,80,0.00,CLR,,0.00,WeatherDisplay:10.37,2013-01-22 06:42:00,
2013-01-22 00:47:00,48.7,43.1,30.19,SSE,164,0.0,0.0,81,0.00,CLR,,0.00,WeatherDisplay:10.37,2013-01-22 06:47:00,
2013-01-22 00:52:00,48.6,43.0,30.19,SSE,164,0.0,0.0,81,0.00,CLR,,0.00,WeatherDisplay:10.37,2013-01-22 06:52:00,
2013-01-22 00:57:00,48.5,42.9,30.19,SSE,164,0.0,0.0,81,0.00,CLR,,0.00,WeatherDisplay:10.37,2013-01-22 06:57:00,
2013-01-22 01:02:00,48.5,43.3,30.19,SSE,164,0.0,0.0,82,0.00,CLR,,0.00,WeatherDisplay:10.37,2013-01-22 07:02:00,
2013-01-22 01:07:00,48.4,43.2,30.19,SSE,164,0.0,0.0,82,0.00,CLR,,0.00,WeatherDisplay:10.37,2013-01-22 07:07:00,
2013-01-22 01:12:00,48.3,43.1,30.19,SSE,164,0.0,0.0,82,0.00,CLR,,0.00,WeatherDisplay:10.37,2013-01-22 07:12:00,
2013-01-22 01:17:00,48.3,43.1,30.19,SSE,164,0.0,0.0,82,0.00,CLR,,0.00,WeatherDisplay:10.37,2013-01-22 07:17:00,
2013-01-22 01:22:00,48.3,43.1,30.19,SSE,164,0.0,0.0,82,0.00,CLR,,0.00,WeatherDisplay:10.37,2013-01-22 07:22:00,
2013-01-22 01:27:00,48.3,43.1,30.19,SSE,164,0.0,0.0,82,0.00,CLR,,0.00,WeatherDisplay:10.37,2013-01-22 07:27:00,
2013-01-22 01:32:00,48.3,43.1,30.19,SSE,164,0.0,0.0,82,0.00,CLR,,0.00,WeatherDisplay:10.37,2013-01-22 07:32:00,
2013-01-22 01:37:00,48.4,43.5,30.19,SSE,164,0.0,0.0,83,0.00,CLR,,0.00,WeatherDisplay:10.37,2013-01-22 07:37:00,
2013-01-22 01:42:00,48.4,43.2,30.19,SSE,164,0.0,0.0,82,0.00,CLR,,0.00,WeatherDisplay:10.37,2013-01-22 07:42:00,
2013-01-22 01:47:00,48.4,43.2,30.19,SSE,164,0.0,0.0,82,0.00,CLR,,0.00,WeatherDisplay:10.37,2013-01-22 07:47:00,
2013-01-22 01:52:00,48.4,43.2,30.19,SSE,164,0.0,0.0,82,0.00,CLR,,0.00,WeatherDisplay:10.37,2013-01-22 07:52:00,
2013-01-22 01:57:00,48.4,43.2,30.19,SSE,164,0.0,0.0,82,0.00,CLR,,0.00,WeatherDisplay:10.37,2013-01-22 07:57:00,
2013-01-22 02:02:00,48.5,43.3,30.19,SSE,164,0.0,0.0,82,0.00,CLR,,0.00,WeatherDisplay:10.37,2013-01-22 08:02:00,
2013-01-22 02:07:00,48.5,43.3,30.19,SSE,164,0.0,0.0,82,0.00,CLR,,0.00,WeatherDisplay:10.37,2013-01-22 08:07:00,
2013-01-22 02:12:00,48.5,43.3,30.19,SSE,164,0.0,0.0,82,0.00,CLR,,0.00,WeatherDisplay:10.37,2013-01-22 08:12:00,
2013-01-22 02:17:00,48.5,43.3,30.19,SSE,164,0.0,0.0,82,0.00,CLR,,0.00,WeatherDisplay:10.37,2013-01-22 08:17:00,
2013-01-22 02:22:00,48.4,43.2,30.19,SSE,164,0.0,0.0,82,0.00,CLR,,0.00,WeatherDisplay:10.37,2013-01-22 08:22:00,
2013-01-22 02:27:00,48.4,43.2,30.19,SSE,164,0.0,0.0,82,0.00,CLR,,0.00,WeatherDisplay:10.37,2013-01-22 08:27:00,
2013-01-22 02:32:00,48.3,43.1,30.19,SSE,164,0.0,0.0,82,0.00,CLR,,0.00,WeatherDisplay:10.37,2013-01-22 08:32:00,
2013-01-22 02:37:00,48.2,43.0,30.19,SSE,164,0.0,0.0,82,0.00,CLR,,0.00,WeatherDisplay:10.37,2013-01-22 08:37:00,
2013-01-22 02:42:00,48.2,43.0,30.19,SSE,164,0.0,0.0,82,0.00,CLR,,0.00,WeatherDisplay:10.37,2013-01-22 08:42:00,
2013-01-22 02:47:00,48.1,42.9,30.19,SSE,164,0.0,0.0,82,0.00,CLR,,0.00,WeatherDisplay:10.37,2013-01-22 08:47:00,
2013-01-22 02:52:00,48.0,42.8,30.19,SSE,164,0.0,0.0,82,0.00,CLR,,0.00,WeatherDisplay:10.37,2013-01-22 08:52:00,
2013-01-22 02:57:00,47.8,42.6,30.20,SSE,164,0.0,0.0,82,0.00,CLR,,0.00,WeatherDisplay:10.37,2013-01-22 08:57:00,
2013-01-22 03:02:00,47.6,42.4,30.20,SSE,164,0.0,0.0,82,0.00,CLR,,0.00,WeatherDisplay:10.37,2013-01-22 09:02:00,
2013-01-22 03:07:00,47.4,42.2,30.20,SSE,164,0.0,0.0,82,0.00,CLR,,0.00,WeatherDisplay:10.37,2013-01-22 09:07:00,
2013-01-22 03:12:00,47.3,42.1,30.20,SSE,164,0.0,0.0,82,0.00,CLR,,0.00,WeatherDisplay:10.37,2013-01-22 09:12:00,
2013-01-22 03:17:00,47.1,42.2,30.20,SSE,164,0.0,0.0,83,0.00,CLR,,0.00,WeatherDisplay:10.37,2013-01-22 09:17:00,
2013-01-22 03:22:00,47.0,42.1,30.20,SSE,164,0.0,0.0,83,0.00,CLR,,0.00,WeatherDisplay:10.37,2013-01-22 09:22:00,
2013-01-22 03:27:00,46.9,42.0,30.20,SSE,164,0.0,0.0,83,0.00,CLR,,0.00,WeatherDisplay:10.37,2013-01-22 09:27:00,
2013-01-22 03:32:00,46.9,42.0,30.20,SSE,164,0.0,0.0,83,0.00,CLR,,0.00,WeatherDisplay:10.37,2013-01-22 09:32:00,
2013-01-22 03:37:00,46.8,41.9,30.20,SSE,164,0.0,0.0,83,0.00,CLR,,0.00,WeatherDisplay:10.37,2013-01-22 09:37:00,
2013-01-22 03:42:00,46.8,42.2,30.20,SSE,164,0.0,0.0,84,0.00,CLR,,0.00,WeatherDisplay:10.37,2013-01-22 09:42:00,
2013-01-22 03:47:00,46.8,42.2,30.20,SSE,164,0.0,0.0,84,0.00,CLR,,0.00,WeatherDisplay:10.37,2013-01-22 09:47:00,
2013-01-22 03:52:00,46.8,42.2,30.20,SSE,164,0.0,0.0,84,0.00,CLR,,0.00,WeatherDisplay:10.37,2013-01-22 09:52:00,
2013-01-22 03:57:00,46.8,42.2,30.20,SSE,164,0.0,0.0,84,0.00,CLR,,0.00,WeatherDisplay:10.37,2013-01-22 09:57:00,
2013-01-22 04:02:00,46.8,42.2,30.20,SSE,164,0.0,0.0,84,0.00,CLR,,0.00,WeatherDisplay:10.37,2013-01-22 10:02:00,
2013-01-22 04:07:00,46.8,42.2,30.20,SSE,164,0.0,0.0,84,0.00,CLR,,0.00,WeatherDisplay:10.37,2013-01-22 10:07:00,
2013-01-22 04:12:00,46.7,41.8,30.20,SSE,164,0.0,0.0,83,0.00,CLR,,0.00,WeatherDisplay:10.37,2013-01-22 10:12:00,
2013-01-22 04:17:00,46.5,41.6,30.20,SSE,164,0.0,0.0,83,0.00,CLR,,0.00,WeatherDisplay:10.37,2013-01-22 10:17:00,
2013-01-22 04:22:00,46.5,41.9,30.20,SSE,164,0.0,0.0,84,0.00,CLR,,0.00,WeatherDisplay:10.37,2013-01-22 10:22:00,
2013-01-22 04:27:00,46.5,41.9,30.20,SSE,164,0.0,0.0,84,0.00,CLR,,0.00,WeatherDisplay:10.37,2013-01-22 10:27:00,
2013-01-22 04:32:00,46.5,41.9,30.20,SSE,164,0.0,0.0,84,0.00,CLR,,0.00,WeatherDisplay:10.37,2013-01-22 10:32:00,
2013-01-22 04:37:00,46.5,41.9,30.21,SSE,164,0.0,0.0,84,0.00,CLR,,0.00,WeatherDisplay:10.37,2013-01-22 10:37:00,
2013-01-22 04:42:00,46.6,42.3,30.21,SSE,164,0.0,0.0,85,0.00,CLR,,0.00,WeatherDisplay:10.37,2013-01-22 10:42:00,
2013-01-22 04:47:00,46.7,42.4,30.21,SSE,164,0.0,0.0,85,0.00,CLR,,0.00,WeatherDisplay:10.37,2013-01-22 10:47:00,
2013-01-22 04:52:00,46.8,42.5,30.21,SSE,164,0.0,0.0,85,0.00,CLR,,0.00,WeatherDisplay:10.37,2013-01-22 10:52:00,
2013-01-22 04:57:00,46.9,42.6,30.21,SSE,164,0.0,0.0,85,0.00,CLR,,0.00,WeatherDisplay:10.37,2013-01-22 10:57:00,
2013-01-22 05:02:00,47.0,42.7,30.21,SSE,164,0.0,0.0,85,0.00,CLR,,0.00,WeatherDisplay:10.37,2013-01-22 11:02:00,
2013-01-22 05:07:00,47.1,42.5,30.21,SSE,164,0.0,0.0,84,0.00,CLR,,0.00,WeatherDisplay:10.37,2013-01-22 11:07:00,
2013-01-22 05:12:00,47.2,42.6,30.21,SSE,164,0.0,0.0,84,0.00,CLR,,0.00,WeatherDisplay:10.37,2013-01-22 11:12:00,
2013-01-22 05:17:00,47.2,42.6,30.22,SSE,164,3.5,3.5,84,0.00,CLR,,0.00,WeatherDisplay:10.37,2013-01-22 11:17:00,
2013-01-22 05:22:00,47.2,42.3,30.22,SSE,164,0.0,0.0,83,0.00,CLR,,0.00,WeatherDisplay:10.37,2013-01-22 11:22:00,
2013-01-22 05:27:00,47.3,42.4,30.22,SSE,164,0.0,0.0,83,0.00,CLR,,0.00,WeatherDisplay:10.37,2013-01-22 11:27:00,
2013-01-22 05:32:00,47.3,42.4,30.23,SSE,164,1.2,1.2,83,0.00,CLR,,0.00,WeatherDisplay:10.37,2013-01-22 11:32:00,
2013-01-22 05:37:00,47.2,42.3,30.23,SSE,164,3.5,3.5,83,0.00,CLR,,0.00,WeatherDisplay:10.37,2013-01-22 11:37:00,
2013-01-22 05:42:00,47.2,42.3,30.23,SSE,164,3.5,0.0,83,0.00,CLR,,0.00,WeatherDisplay:10.37,2013-01-22 11:42:00,
2013-01-22 05:47:00,47.2,42.3,30.23,SSE,164,1.2,0.0,83,0.00,CLR,,0.00,WeatherDisplay:10.37,2013-01-22 11:47:00,
2013-01-22 05:52:00,47.1,42.2,30.23,SSE,164,0.0,0.0,83,0.00,CLR,,0.00,WeatherDisplay:10.37,2013-01-22 11:52:00,
2013-01-22 05:57:00,47.0,42.1,30.23,SSE,164,0.0,0.0,83,0.00,CLR,,0.00,WeatherDisplay:10.37,2013-01-22 11:57:00,
2013-01-22 06:02:00,46.9,42.0,30.23,SSE,164,0.0,0.0,83,0.00,CLR,,0.00,WeatherDisplay:10.37,2013-01-22 12:02:00,
2013-01-22 06:07:00,46.8,41.9,30.24,SSE,164,0.0,0.0,83,0.00,CLR,,0.00,WeatherDisplay:10.37,2013-01-22 12:07:00,
2013-01-22 06:12:00,46.7,41.8,30.24,SSE,164,0.0,0.0,83,0.00,CLR,,0.00,WeatherDisplay:10.37,2013-01-22 12:12:00,
2013-01-22 06:17:00,46.6,41.7,30.24,SSE,164,0.0,0.0,83,0.00,CLR,,0.00,WeatherDisplay:10.37,2013-01-22 12:17:00,
2013-01-22 06:22:00,46.6,42.0,30.24,SSE,164,0.0,0.0,84,0.00,CLR,,0.00,WeatherDisplay:10.37,2013-01-22 12:22:00,
2013-01-22 06:27:00,46.5,41.9,30.24,SSE,164,0.0,0.0,84,0.00,CLR,,0.00,WeatherDisplay:10.37,2013-01-22 12:27:00,
2013-01-22 06:32:00,46.5,41.9,30.24,SSE,164,0.0,0.0,84,0.00,CLR,,0.00,WeatherDisplay:10.37,2013-01-22 12:32:00,
2013-01-22 06:37:00,46.6,42.0,30.24,SSE,164,0.0,0.0,84,0.00,CLR,,0.00,WeatherDisplay:10.37,2013-01-22 12:37:00,
2013-01-22 06:42:00,46.6,42.0,30.25,SSE,164,0.0,0.0,84,0.00,CLR,,0.00,WeatherDisplay:10.37,2013-01-22 12:42:00,
2013-01-22 06:47:00,46.6,42.0,30.25,SSE,164,0.0,0.0,84,0.00,CLR,,0.00,WeatherDisplay:10.37,2013-01-22 12:47:00,
2013-01-22 06:52:00,46.7,42.4,30.25,SSE,164,0.0,0.0,85,0.00,CLR,,0.00,WeatherDisplay:10.37,2013-01-22 12:52:00,
2013-01-22 06:57:00,46.7,42.4,30.25,SSE,164,0.0,0.0,85,0.00,CLR,,0.00,WeatherDisplay:10.37,2013-01-22 12:57:00,
2013-01-22 07:02:00,46.7,42.1,30.25,SSE,164,0.0,0.0,84,0.00,CLR,,0.00,WeatherDisplay:10.37,2013-01-22 13:02:00,
2013-01-22 07:07:00,46.8,42.2,30.25,SSE,164,0.0,0.0,84,0.00,CLR,,0.00,WeatherDisplay:10.37,2013-01-22 13:07:00,
2013-01-22 07:13:00,46.8,42.2,30.25,SSE,164,0.0,0.0,84,0.00,CLR,,0.00,WeatherDisplay:10.37,2013-01-22 13:13:00,
2013-01-22 07:18:00,46.8,42.2,30.25,SSE,164,0.0,0.0,84,0.00,CLR,,0.00,WeatherDisplay:10.37,2013-01-22 13:18:00,
2013-01-22 07:23:00,46.9,42.3,30.25,SSE,164,0.0,0.0,84,0.00,CLR,,0.00,WeatherDisplay:10.37,2013-01-22 13:23:00,
2013-01-22 07:28:00,46.9,42.3,30.25,SSE,164,0.0,0.0,84,0.00,CLR,,0.00,WeatherDisplay:10.37,2013-01-22 13:28:00,
2013-01-22 07:33:00,46.8,42.2,30.25,SSE,164,0.0,0.0,84,0.00,CLR,,0.00,WeatherDisplay:10.37,2013-01-22 13:33:00,
2013-01-22 07:38:00,46.9,42.0,30.25,SSE,164,0.0,0.0,83,0.00,CLR,,0.00,WeatherDisplay:10.37,2013-01-22 13:38:00,
2013-01-22 07:43:00,46.9,42.0,30.25,SSE,164,0.0,0.0,83,0.00,CLR,,0.00,WeatherDisplay:10.37,2013-01-22 13:43:00,
2013-01-22 07:48:00,46.9,42.0,30.25,SSE,164,0.0,0.0,83,0.00,CLR,,0.00,WeatherDisplay:10.37,2013-01-22 13:48:00,
2013-01-22 07:53:00,46.9,42.0,30.25,SSE,164,0.0,0.0,83,0.00,CLR,,0.00,WeatherDisplay:10.37,2013-01-22 13:53:00,
2013-01-22 07:58:00,46.9,42.0,30.25,SSE,164,0.0,0.0,83,0.00,CLR,,0.00,WeatherDisplay:10.37,2013-01-22 13:58:00,
2013-01-22 08:03:00,47.1,42.2,30.25,SSE,164,0.0,0.0,83,0.00,CLR,,0.00,WeatherDisplay:10.37,2013-01-22 14:03:00,
2013-01-22 08:08:00,47.2,42.3,30.25,SSE,164,0.0,0.0,83,0.00,CLR,,0.00,WeatherDisplay:10.37,2013-01-22 14:08:00,
2013-01-22 08:13:00,47.3,42.4,30.25,SSE,164,0.0,0.0,83,0.00,CLR,,0.00,WeatherDisplay:10.37,2013-01-22 14:13:00,
2013-01-22 08:18:00,47.5,42.6,30.25,SSE,164,0.0,0.0,83,0.00,CLR,,0.00,WeatherDisplay:10.37,2013-01-22 14:18:00,
2013-01-22 08:23:00,47.7,42.8,30.25,SSE,164,0.0,0.0,83,0.00,CLR,,0.00,WeatherDisplay:10.37,2013-01-22 14:23:00,
2013-01-22 08:28:00,48.0,43.1,30.25,SSE,164,0.0,0.0,83,0.00,CLR,,0.00,WeatherDisplay:10.37,2013-01-22 14:28:00,
2013-01-22 08:33:00,48.3,43.1,30.25,SSE,164,0.0,0.0,82,0.00,CLR,,0.00,WeatherDisplay:10.37,2013-01-22 14:33:00,
2013-01-22 08:38:00,48.8,43.5,30.25,SSE,164,0.0,0.0,82,0.00,CLR,,0.00,WeatherDisplay:10.37,2013-01-22 14:38:00,
2013-01-22 08:43:00,49.4,44.1,30.25,SSE,164,0.0,0.0,82,0.00,CLR,,0.00,WeatherDisplay:10.37,2013-01-22 14:43:00,
2013-01-22 08:48:00,50.1,44.5,30.25,SSE,164,0.0,0.0,81,0.00,CLR,,0.00,WeatherDisplay:10.37,2013-01-22 14:48:00,
2013-01-22 08:53:00,51.0,45.0,30.25,SSE,164,0.0,0.0,80,0.00,CLR,,0.00,WeatherDisplay:10.37,2013-01-22 14:53:00,
2013-01-22 08:58:00,52.0,45.0,30.25,SSE,164,0.0,0.0,77,0.00,CLR,,0.00,WeatherDisplay:10.37,2013-01-22 14:58:00,
2013-01-22 09:03:00,52.9,45.5,30.25,SSE,164,3.5,3.5,76,0.00,CLR,,0.00,WeatherDisplay:10.37,2013-01-22 15:03:00,
2013-01-22 09:08:00,53.7,45.2,30.25,SSE,164,3.0,0.0,73,0.00,CLR,,0.00,WeatherDisplay:10.37,2013-01-22 15:08:00,
2013-01-22 09:13:00,54.3,45.5,30.26,SSE,164,0.0,0.0,72,0.00,CLR,,0.00,WeatherDisplay:10.37,2013-01-22 15:13:00,
2013-01-22 09:18:00,54.8,45.9,30.26,SSE,164,4.6,4.6,72,0.00,CLR,,0.00,WeatherDisplay:10.37,2013-01-22 15:18:00,
2013-01-22 09:23:00,55.2,46.0,30.26,SSE,164,2.3,2.3,71,0.00,CLR,,0.00,WeatherDisplay:10.37,2013-01-22 15:23:00,
2013-01-22 09:28:00,55.5,46.2,30.26,SSE,164,3.5,3.5,71,0.00,CLR,,0.00,WeatherDisplay:10.37,2013-01-22 15:28:00,
2013-01-22 09:33:00,55.8,46.2,30.27,SSE,164,0.0,0.0,70,0.00,CLR,,0.00,WeatherDisplay:10.37,2013-01-22 15:33:00,
2013-01-22 09:38:00,56.2,46.9,30.27,SSE,164,1.2,1.2,71,0.00,CLR,,0.00,WeatherDisplay:10.37,2013-01-22 15:38:00,
2013-01-22 09:43:00,56.7,47.0,30.27,SSE,164,0.0,0.0,70,0.00,CLR,,0.00,WeatherDisplay:10.37,2013-01-22 15:43:00,
2013-01-22 09:48:00,57.3,47.6,30.27,SSE,164,0.0,0.0,70,0.00,CLR,,0.00,WeatherDisplay:10.37,2013-01-22 15:48:00,
2013-01-22 09:53:00,58.0,48.3,30.27,SSE,164,2.3,2.3,70,0.00,CLR,,0.00,WeatherDisplay:10.37,2013-01-22 15:53:00,
2013-01-22 09:58:00,58.7,48.9,30.27,SSE,164,0.0,0.0,70,0.00,CLR,,0.00,WeatherDisplay:10.37,2013-01-22 15:58:00,
2013-01-22 10:03:00,59.4,49.2,30.27,SSE,164,4.6,4.6,69,0.00,CLR,,0.00,WeatherDisplay:10.37,2013-01-22 16:03:00,
2013-01-22 10:08:00,59.8,49.6,30.28,SSE,164,5.8,5.8,69,0.00,CLR,,0.00,WeatherDisplay:10.37,2013-01-22 16:08:00,
2013-01-22 10:13:00,60.0,50.2,30.28,SSE,164,0.0,0.0,70,0.00,CLR,,0.00,WeatherDisplay:10.37,2013-01-22 16:13:00,
2013-01-22 10:18:00,60.3,50.1,30.28,SSE,164,5.8,5.8,69,0.00,CLR,,0.00,WeatherDisplay:10.37,2013-01-22 16:18:00,
2013-01-22 10:23:00,60.6,50.8,30.28,SSE,164,6.9,6.9,70,0.00,CLR,,0.00,WeatherDisplay:10.37,2013-01-22 16:23:00,
2013-01-22 10:28:00,60.9,51.0,30.28,South,178,7.0,7.0,70,0.00,CLR,,0.00,WeatherDisplay:10.37,2013-01-22 16:28:00,
2013-01-22 10:33:00,61.0,50.8,30.28,South,175,5.8,5.8,69,0.00,CLR,,0.00,WeatherDisplay:10.37,2013-01-22 16:33:00,
2013-01-22 10:38:00,61.3,51.0,30.28,SSE,168,6.9,6.9,69,0.00,CLR,,0.00,WeatherDisplay:10.37,2013-01-22 16:38:00,
2013-01-22 10:43:00,61.5,51.2,30.29,South,188,11.5,11.5,69,0.00,CLR,,0.00,WeatherDisplay:10.37,2013-01-22 16:43:00,
2013-01-22 10:48:00,61.5,51.6,30.28,SSW,192,5.8,5.8,70,0.00,CLR,,0.00,WeatherDisplay:10.37,2013-01-22 16:48:00,
2013-01-22 10:53:00,62.0,52.5,30.29,South,173,10.4,10.4,71,0.00,CLR,,0.00,WeatherDisplay:10.37,2013-01-22 16:53:00,
2013-01-22 10:58:00,62.2,51.9,30.29,South,180,8.1,8.1,69,0.00,CLR,,0.00,WeatherDisplay:10.37,2013-01-22 16:58:00,
2013-01-22 11:03:00,62.4,52.1,30.28,SSE,161,5.8,5.8,69,0.00,CLR,,0.00,WeatherDisplay:10.37,2013-01-22 17:03:00,
2013-01-22 11:08:00,62.5,51.4,30.28,South,188,5.8,5.8,67,0.00,CLR,,0.00,WeatherDisplay:10.37,2013-01-22 17:08:00,
2013-01-22 11:13:00,62.6,51.9,30.28,SSE,163,11.5,11.5,68,0.00,CLR,,0.00,WeatherDisplay:10.37,2013-01-22 17:13:00,
2013-01-22 11:18:00,62.6,51.5,30.28,SSE,156,11.5,11.5,67,0.00,CLR,,0.00,WeatherDisplay:10.37,2013-01-22 17:18:00,
2013-01-22 11:23:00,62.7,51.6,30.27,SE,146,6.9,6.9,67,0.00,CLR,,0.00,WeatherDisplay:10.37,2013-01-22 17:23:00,
2013-01-22 11:28:00,62.7,51.6,30.27,SSE,163,12.7,12.7,67,0.00,CLR,,0.00,WeatherDisplay:10.37,2013-01-22 17:28:00,
2013-01-22 11:33:00,62.7,51.6,30.27,South,171,11.5,11.5,67,0.00,CLR,,0.00,WeatherDisplay:10.37,2013-01-22 17:33:00,
2013-01-22 11:39:00,62.9,51.8,30.27,SSE,163,11.5,11.5,67,0.00,CLR,,0.00,WeatherDisplay:10.37,2013-01-22 17:39:00,
2013-01-22 11:44:00,63.3,51.7,30.27,SSW,193,13.8,13.8,66,0.00,CLR,,0.00,WeatherDisplay:10.37,2013-01-22 17:44:00,
2013-01-22 11:49:00,63.4,51.8,30.27,SSE,153,9.2,9.2,66,0.00,CLR,,0.00,WeatherDisplay:10.37,2013-01-22 17:49:00,
2013-01-22 11:54:00,63.8,51.8,30.26,South,171,11.0,11.0,65,0.00,CLR,,0.00,WeatherDisplay:10.37,2013-01-22 17:54:00,
2013-01-22 11:59:00,63.9,51.5,30.26,South,184,15.0,15.0,64,0.00,CLR,,0.00,WeatherDisplay:10.37,2013-01-22 17:59:00,
2013-01-22 12:04:00,64.1,51.7,30.26,SSE,163,16.1,16.1,64,0.00,CLR,,0.00,WeatherDisplay:10.37,2013-01-22 18:04:00,
2013-01-22 12:09:00,64.3,51.0,30.25,South,179,15.0,15.0,62,0.00,CLR,,0.00,WeatherDisplay:10.37,2013-01-22 18:09:00,
2013-01-22 12:14:00,64.4,51.1,30.25,South,183,11.5,11.5,62,0.00,CLR,,0.00,WeatherDisplay:10.37,2013-01-22 18:14:00,
2013-01-22 12:19:00,64.9,51.1,30.25,South,187,19.6,19.6,61,0.00,CLR,,0.00,WeatherDisplay:10.37,2013-01-22 18:19:00,
2013-01-22 12:24:00,65.0,50.8,30.24,SSE,168,11.5,11.5,60,0.00,CLR,,0.00,WeatherDisplay:10.37,2013-01-22 18:24:00,
2013-01-22 12:29:00,65.2,51.0,30.24,South,184,10.0,10.0,60,0.00,CLR,,0.00,WeatherDisplay:10.37,2013-01-22 18:29:00,
2013-01-22 12:34:00,65.5,51.2,30.24,South,178,15.0,15.0,60,0.00,CLR,,0.00,WeatherDisplay:10.37,2013-01-22 18:34:00,
2013-01-22 12:39:00,65.7,51.4,30.23,South,176,19.6,19.6,60,0.00,CLR,,0.00,WeatherDisplay:10.37,2013-01-22 18:39:00,
2013-01-22 12:44:00,65.7,51.0,30.23,SSW,193,17.3,17.3,59,0.00,CLR,,0.00,WeatherDisplay:10.37,2013-01-22 18:44:00,
2013-01-22 12:49:00,65.9,51.2,30.23,South,169,9.2,9.2,59,0.00,CLR,,0.00,WeatherDisplay:10.37,2013-01-22 18:49:00,
2013-01-22 12:54:00,66.2,51.0,30.22,South,169,11.5,11.5,58,0.00,CLR,,0.00,WeatherDisplay:10.37,2013-01-22 18:54:00,
2013-01-22 12:59:00,66.5,50.8,30.22,SSE,165,13.8,13.8,57,0.00,CLR,,0.00,WeatherDisplay:10.37,2013-01-22 18:59:00,
2013-01-22 13:04:00,66.7,51.5,30.22,SSE,159,13.8,13.8,58,0.00,CLR,,0.00,WeatherDisplay:10.37,2013-01-22 19:04:00,
2013-01-22 13:09:00,66.9,51.6,30.21,SE,144,17.3,17.3,58,0.00,CLR,,0.00,WeatherDisplay:10.37,2013-01-22 19:09:00,
2013-01-22 13:14:00,67.1,51.4,30.21,SSE,163,11.5,11.5,57,0.00,CLR,,0.00,WeatherDisplay:10.37,2013-01-22 19:14:00,
2013-01-22 13:19:00,67.2,51.4,30.21,SE,132,9.0,9.0,57,0.00,CLR,,0.00,WeatherDisplay:10.37,2013-01-22 19:19:00,
2013-01-22 13:24:00,67.4,51.6,30.21,SSW,194,11.5,11.5,57,0.00,CLR,,0.00,WeatherDisplay:10.37,2013-01-22 19:24:00,
2013-01-22 13:29:00,67.5,51.2,30.21,SSW,194,18.4,18.4,56,0.00,CLR,,0.00,WeatherDisplay:10.37,2013-01-22 19:29:00,
2013-01-22 13:34:00,67.7,51.4,30.20,South,182,16.1,16.1,56,0.00,CLR,,0.00,WeatherDisplay:10.37,2013-01-22 19:34:00,
2013-01-22 13:39:00,67.6,51.3,30.20,South,180,13.8,13.8,56,0.00,CLR,,0.00,WeatherDisplay:10.37,2013-01-22 19:39:00,
2013-01-22 13:44:00,67.8,51.5,30.20,South,178,9.2,9.2,56,0.00,CLR,,0.00,WeatherDisplay:10.37,2013-01-22 19:44:00,
2013-01-22 13:49:00,68.0,51.7,30.19,South,171,12.7,12.7,56,0.00,CLR,,0.00,WeatherDisplay:10.37,2013-01-22 19:49:00,
2013-01-22 13:54:00,68.3,51.5,30.19,South,169,7.0,7.0,55,0.00,CLR,,0.00,WeatherDisplay:10.37,2013-01-22 19:54:00,
2013-01-22 13:59:00,68.6,51.3,30.19,South,184,13.8,13.8,54,0.00,CLR,,0.00,WeatherDisplay:10.37,2013-01-22 19:59:00,
2013-01-22 14:04:00,68.8,51.5,30.19,SSE,160,12.7,12.7,54,0.00,CLR,,0.00,WeatherDisplay:10.37,2013-01-22 20:04:00,
2013-01-22 14:09:00,68.6,51.3,30.19,South,179,12.7,12.7,54,0.00,CLR,,0.00,WeatherDisplay:10.37,2013-01-22 20:09:00,
2013-01-22 14:14:00,68.6,51.3,30.18,SW,214,12.7,12.7,54,0.00,CLR,,0.00,WeatherDisplay:10.37,2013-01-22 20:14:00,
2013-01-22 14:19:00,68.7,50.9,30.18,South,179,17.3,17.3,53,0.00,CLR,,0.00,WeatherDisplay:10.37,2013-01-22 20:19:00,
2013-01-22 14:24:00,69.0,51.2,30.18,SW,235,11.5,11.5,53,0.00,CLR,,0.00,WeatherDisplay:10.37,2013-01-22 20:24:00,
2013-01-22 14:29:00,69.0,50.6,30.17,SSW,194,15.0,15.0,52,0.00,CLR,,0.00,WeatherDisplay:10.37,2013-01-22 20:29:00,
2013-01-22 14:34:00,69.1,50.2,30.18,South,184,7.0,7.0,51,0.00,CLR,,0.00,WeatherDisplay:10.37,2013-01-22 20:34:00,
2013-01-22 14:39:00,69.3,50.4,30.18,South,175,15.0,15.0,51,0.00,CLR,,0.00,WeatherDisplay:10.37,2013-01-22 20:39:00,
2013-01-22 14:44:00,69.5,50.6,30.17,South,177,5.8,5.8,51,0.00,CLR,,0.00,WeatherDisplay:10.37,2013-01-22 20:44:00,
2013-01-22 14:49:00,69.6,50.7,30.17,South,178,11.5,11.5,51,0.00,CLR,,0.00,WeatherDisplay:10.37,2013-01-22 20:49:00,
2013-01-22 14:54:00,69.8,50.9,30.18,SSW,195,8.1,8.1,51,0.00,CLR,,0.00,WeatherDisplay:10.37,2013-01-22 20:54:00,
2013-01-22 14:59:00,69.9,50.9,30.18,SSW,192,10.4,10.4,51,0.00,CLR,,0.00,WeatherDisplay:10.37,2013-01-22 20:59:00,
2013-01-22 15:04:00,69.9,50.9,30.17,South,185,11.5,11.5,51,0.00,CLR,,0.00,WeatherDisplay:10.37,2013-01-22 21:04:00,
2013-01-22 15:09:00,69.9,50.4,30.17,SSE,159,11.5,11.5,50,0.00,CLR,,0.00,WeatherDisplay:10.37,2013-01-22 21:09:00,
2013-01-22 15:14:00,70.0,50.5,30.17,SSW,208,12.7,12.7,50,0.00,CLR,,0.00,WeatherDisplay:10.37,2013-01-22 21:14:00,
2013-01-22 15:19:00,70.0,50.5,30.17,South,176,17.3,17.3,50,0.00,CLR,,0.00,WeatherDisplay:10.37,2013-01-22 21:19:00,
2013-01-22 15:24:00,70.0,51.0,30.17,SSE,167,11.5,11.5,51,0.00,CLR,,0.00,WeatherDisplay:10.37,2013-01-22 21:24:00,
2013-01-22 15:29:00,70.0,51.0,30.17,South,188,11.0,11.0,51,0.00,CLR,,0.00,WeatherDisplay:10.37,2013-01-22 21:29:00,